| time (UTC) | temp C | wind direction | speed KPH | gust KPH | rain 1hr cm | rain 24hr cm | rain mn cm | humidity % | barometer mb |
| 20260510201600 | 28 | 308 | 1.6 | 8.0 | 0.00 | 0.00 | 0.00 | 41 | 1013.9 |
| 20260510200055 | 28 | 225 | 3.2 | 8.0 | 0.00 | 0.00 | 0.00 | 41 | 1014.0 |
| 20260510194604 | 28 | 240 | 1.6 | 9.7 | 0.00 | 0.00 | 0.00 | 40 | 1013.9 |
| 20260510193101 | 28 | 211 | 1.6 | 16.1 | 0.00 | 0.00 | 0.00 | 43 | 1014.0 |
| 20260510191559 | 28 | 211 | 0.0 | 6.4 | 0.00 | 0.00 | 0.00 | 44 | 1014.3 |
| 20260510190108 | 28 | 225 | 4.8 | 11.3 | 0.00 | 0.00 | 0.00 | 43 | 1014.4 |
| 20260510184606 | 27 | 252 | 0.0 | 6.4 | 0.00 | 0.00 | 0.00 | 47 | 1014.5 |
| 20260510183059 | 27 | 255 | 1.6 | 11.3 | 0.00 | 0.00 | 0.00 | 46 | 1014.7 |
| 20260510181617 | 27 | 219 | 1.6 | 11.3 | 0.00 | 0.00 | 0.00 | 48 | 1014.6 |
| 20260510180108 | 27 | 313 | 1.6 | 6.4 | 0.00 | 0.00 | 0.00 | 47 | 1015.0 |
| 20260510174624 | 27 | 315 | 1.6 | 8.0 | 0.00 | 0.00 | 0.00 | 48 | 1014.7 |
| 20260510173056 | 27 | 0 | 1.6 | 6.4 | 0.00 | 0.00 | 0.00 | 50 | 1014.9 |
| 20260510171618 | 27 | 360 | 1.6 | 11.3 | 0.00 | 0.00 | 0.00 | 47 | 1015.0 |
| 20260510170054 | 27 | 38 | 1.6 | 9.7 | 0.00 | 0.00 | 0.00 | 48 | 1015.1 |
| 20260510164601 | 26 | 0 | 1.6 | 6.4 | 0.00 | 0.00 | 0.00 | 50 | 1015.2 |
| 20260510163102 | 26 | 265 | 3.2 | 6.4 | 0.00 | 0.00 | 0.00 | 51 | 1015.3 |
| 20260510161558 | 26 | 328 | 3.2 | 11.3 | 0.00 | 0.00 | 0.00 | 53 | 1015.3 |
| 20260510160057 | 25 | 0 | 0.0 | 8.0 | 0.00 | 0.00 | 0.00 | 60 | 1015.5 |
| 20260510154559 | 25 | 346 | 3.2 | 8.0 | 0.00 | 0.00 | 0.00 | 56 | 1015.6 |
| 20260510153058 | 25 | 323 | 4.8 | 9.7 | 0.00 | 0.00 | 0.00 | 59 | 1015.6 |
| 20260510151555 | 25 | 335 | 4.8 | 8.0 | 0.00 | 0.00 | 0.00 | 62 | 1015.6 |
| 20260510150100 | 24 | 339 | 3.2 | 8.0 | 0.00 | 0.00 | 0.00 | 64 | 1015.4 |
| 20260510144602 | 23 | 111 | 1.6 | 8.0 | 0.00 | 0.00 | 0.00 | 67 | 1015.7 |
| 20260510143055 | 23 | 0 | 1.6 | 12.9 | 0.00 | 0.00 | 0.00 | 71 | 1015.4 |
| 20260510141553 | 22 | 0 | 0.0 | 4.8 | 0.00 | 0.00 | 0.00 | 73 | 1015.4 |
| 20260510140054 | 22 | 0 | 0.0 | 4.8 | 0.00 | 0.00 | 0.00 | 78 | 1015.5 |
| 20260510134556 | 21 | 0 | 3.2 | 4.8 | 0.00 | 0.03 | 0.00 | 81 | 1015.5 |
| 20260510133052 | 20 | 300 | 1.6 | 9.7 | 0.00 | 0.03 | 0.00 | 85 | 1015.4 |
| 20260510131551 | 20 | 261 | 1.6 | 6.4 | 0.00 | 0.03 | 0.00 | 88 | 1015.3 |
| 20260510130057 | 19 | 265 | 1.6 | 4.8 | 0.00 | 0.03 | 0.00 | 91 | 1015.3 |
| 20260510124601 | 18 | 266 | 1.6 | 6.4 | 0.00 | 0.03 | 0.00 | 93 | 1014.9 |
| 20260510123056 | 17 | 270 | 1.6 | 4.8 | 0.00 | 0.03 | 0.00 | 95 | 1014.9 |
| 20260510121555 | 17 | 267 | 1.6 | 4.8 | 0.00 | 0.03 | 0.00 | 96 | 1014.9 |
| 20260510114613 | 16 | 0 | 1.6 | 3.2 | 0.00 | 0.03 | 0.00 | 96 | 1014.5 |
| 20260510113101 | 16 | 0 | 0.0 | 0.0 | 0.00 | 0.03 | 0.00 | 96 | 1014.3 |
| 20260510111557 | 16 | 0 | 0.0 | 1.6 | 0.00 | 0.03 | 0.00 | 96 | 1014.1 |
| 20260510104600 | 15 | 0 | 0.0 | 0.0 | 0.00 | 0.03 | 0.00 | 96 | 1013.7 |
| 20260510103057 | 15 | 0 | 0.0 | 0.0 | 0.00 | 0.03 | 0.00 | 96 | 1013.5 |
| 20260510101603 | 16 | 0 | 1.6 | 3.2 | 0.00 | 0.03 | 0.00 | 96 | 1013.2 |
| 20260510100107 | 16 | 0 | 0.0 | 1.6 | 0.00 | 0.03 | 0.00 | 96 | 1013.0 |
| 20260510094557 | 15 | 0 | 0.0 | 0.0 | 0.00 | 0.03 | 0.00 | 96 | 1012.9 |
| 20260510093059 | 15 | 0 | 0.0 | 3.2 | 0.00 | 0.03 | 0.00 | 96 | 1012.8 |
| 20260510091608 | 15 | 0 | 0.0 | 0.0 | 0.00 | 0.03 | 0.00 | 96 | 1012.8 |
| 20260510084615 | 15 | 0 | 0.0 | 0.0 | 0.00 | 0.03 | 0.00 | 95 | 1012.4 |
| 20260510083109 | 16 | 0 | 0.0 | 0.0 | 0.00 | 0.03 | 0.00 | 96 | 1012.1 |
| 20260510081609 | 16 | 0 | 0.0 | 0.0 | 0.00 | 0.03 | 0.00 | 96 | 1012.2 |
| 20260510080104 | 16 | 0 | 0.0 | 0.0 | 0.00 | 0.03 | 0.00 | 96 | 1012.0 |
| 20260510074559 | 16 | 0 | 0.0 | 0.0 | 0.00 | 0.03 | 0.00 | 96 | 1012.0 |
| 20260510073100 | 16 | 0 | 0.0 | 0.0 | 0.00 | 0.03 | 0.00 | 95 | 1012.0 |
| 20260510071557 | 16 | 0 | 0.0 | 0.0 | 0.00 | 0.03 | 0.00 | 95 | 1011.9 |
| 20260510070109 | 16 | 0 | 0.0 | 0.0 | 0.00 | 0.03 | 0.00 | 95 | 1011.9 |
| 20260510064555 | 16 | 0 | 0.0 | 0.0 | 0.00 | 0.03 | 0.00 | 95 | 1012.1 |
| 20260510063055 | 16 | 0 | 0.0 | 0.0 | 0.00 | 0.03 | 0.00 | 95 | 1011.9 |
| 20260510061555 | 16 | 0 | 0.0 | 0.0 | 0.00 | 0.03 | 0.00 | 95 | 1011.9 |
| 20260510060056 | 16 | 0 | 0.0 | 0.0 | 0.00 | 0.03 | 0.00 | 95 | 1011.9 |
| 20260510054556 | 16 | 0 | 0.0 | 0.0 | 0.00 | 0.03 | 0.00 | 95 | 1012.1 |
| 20260510053059 | 16 | 0 | 0.0 | 0.0 | 0.00 | 0.03 | 0.00 | 95 | 1012.2 |
| 20260510051605 | 16 | 0 | 0.0 | 0.0 | 0.00 | 0.03 | 0.00 | 95 | 1012.5 |
| 20260510050105 | 16 | 0 | 0.0 | 0.0 | 0.00 | 0.03 | 0.00 | 95 | 1012.5 |
| 20260510044555 | 16 | 0 | 0.0 | 0.0 | 0.00 | 0.03 | 0.00 | 95 | 1012.5 |
| 20260510043054 | 17 | 0 | 0.0 | 0.0 | 0.00 | 0.03 | 0.00 | 94 | 1012.5 |
| 20260510041554 | 17 | 0 | 0.0 | 0.0 | 0.00 | 0.03 | 0.00 | 94 | 1012.5 |
| 20260510040103 | 17 | 0 | 0.0 | 0.0 | 0.00 | 0.03 | 0.00 | 94 | 1012.4 |
| 20260510034557 | 17 | 0 | 0.0 | 0.0 | 0.00 | 0.03 | 0.03 | 94 | 1012.3 |
| 20260510033103 | 17 | 0 | 0.0 | 0.0 | 0.00 | 0.03 | 0.03 | 94 | 1012.2 |
| 20260510031602 | 17 | 0 | 0.0 | 1.6 | 0.00 | 0.03 | 0.03 | 93 | 1012.2 |
| 20260510024555 | 18 | 271 | 0.0 | 3.2 | 0.00 | 0.03 | 0.03 | 92 | 1012.2 |
| 20260510023053 | 18 | 0 | 0.0 | 0.0 | 0.00 | 0.03 | 0.03 | 92 | 1012.0 |
| 20260510021645 | 18 | 0 | 0.0 | 0.0 | 0.00 | 0.03 | 0.03 | 92 | 1011.9 |
| 20260510020058 | 18 | 0 | 0.0 | 0.0 | 0.00 | 0.03 | 0.03 | 92 | 1011.8 |
| 20260510014559 | 18 | 0 | 0.0 | 0.0 | 0.00 | 0.03 | 0.03 | 92 | 1011.8 |
| 20260510013102 | 18 | 0 | 0.0 | 0.0 | 0.00 | 0.03 | 0.03 | 91 | 1011.4 |
| 20260510011556 | 18 | 0 | 0.0 | 3.2 | 0.00 | 0.03 | 0.03 | 90 | 1011.2 |
| 20260510010059 | 19 | 0 | 0.0 | 0.0 | 0.00 | 0.03 | 0.03 | 89 | 1011.2 |
| 20260510004554 | 19 | 0 | 0.0 | 0.0 | 0.00 | 0.03 | 0.03 | 87 | 1011.0 |
| 20260510003055 | 20 | 0 | 0.0 | 0.0 | 0.00 | 0.03 | 0.03 | 86 | 1010.9 |
| 20260510001557 | 20 | 0 | 0.0 | 0.0 | 0.00 | 0.03 | 0.03 | 83 | 1010.9 |
| 20260510000056 | 21 | 0 | 0.0 | 0.0 | 0.00 | 0.03 | 0.03 | 82 | 1010.9 |
| 20260509234556 | 21 | 0 | 0.0 | 0.0 | 0.00 | 0.03 | 0.03 | 80 | 1010.7 |
| 20260509233055 | 22 | 0 | 0.0 | 0.0 | 0.00 | 0.03 | 0.03 | 79 | 1010.6 |
| 20260509231601 | 22 | 0 | 0.0 | 1.6 | 0.00 | 0.03 | 0.03 | 78 | 1010.2 |
| 20260509230059 | 22 | 269 | 1.6 | 4.8 | 0.00 | 0.03 | 0.03 | 77 | 1010.2 |
| 20260509224559 | 22 | 269 | 1.6 | 4.8 | 0.00 | 0.03 | 0.03 | 77 | 1010.1 |
| 20260509223054 | 22 | 269 | 1.6 | 4.8 | 0.00 | 0.03 | 0.03 | 77 | 1010.1 |
| 20260509221556 | 22 | 0 | 0.0 | 4.8 | 0.00 | 0.03 | 0.03 | 77 | 1010.0 |
| 20260509220056 | 22 | 251 | 3.2 | 8.0 | 0.00 | 0.03 | 0.03 | 76 | 1010.2 |
| 20260509214559 | 22 | 257 | 3.2 | 6.4 | 0.00 | 0.03 | 0.03 | 75 | 1010.2 |
| 20260509213105 | 22 | 234 | 3.2 | 6.4 | 0.00 | 0.03 | 0.03 | 76 | 1010.1 |
| 20260509211603 | 22 | 267 | 3.2 | 6.4 | 0.00 | 0.03 | 0.03 | 76 | 1010.2 |
| 20260509210056 | 22 | 219 | 3.2 | 8.0 | 0.00 | 0.03 | 0.03 | 75 | 1010.1 |
| 20260509204600 | 22 | 243 | 1.6 | 8.0 | 0.00 | 0.03 | 0.03 | 75 | 1009.9 |
| 20260509203101 | 22 | 244 | 3.2 | 6.4 | 0.00 | 0.03 | 0.03 | 76 | 1010.1 |